Location: Huntsville
(34.7300°N, 86.5860°W)
Time: 08:28:29
(UTC-05:00)

Daily predictions for brighter satellites

Satellite Brightness Start Highest point End
(mag) Time Altitude Azimuth Time Altitude Azimuth Time Altitude Azimuth
Cosmos 1371 Rocket 4.1 19:52:18 10° SSW 19:57:28 84° WNW 20:02:41 10° NNE
GPS 2-05 Rocket1 3.1 19:55:25 10° SW 19:58:40 46° SSE 20:01:51 10° E
ALOS 3.4 19:54:57 10° S 19:59:26 48° W 20:03:58 10° NNW
FengYun 1-2 T 4.4 19:54:30 10° SSE 20:00:08 88° WSW 20:05:49 10° NNW
SL-16 R/B 3.7 19:57:29 10° SE 20:00:37 15° E 20:03:44 10° ENE
Cosmos 1441 Rocket 3.9 19:59:43 10° NNE 20:03:07 32° ENE 20:06:30 10° SE
Cosmos 405 Rocket 2.7 20:01:57 10° N 20:05:43 60° E 20:09:33 10° SSE
Meteor 2-20 Rocket 4.5 20:02:58 10° S 20:09:04 86° E 20:15:10 10° N
Resurs 01 Rocket 1.8 20:06:17 10° SSE 20:10:37 56° ENE 20:15:00 10° N
Cosmos 1624 Rocket 4.4 20:09:22 10° SSW 20:14:40 71° WNW 20:20:00 10° NNE
Spot 2 Rocket 3.7 20:10:26 10° SSE 20:15:25 56° ENE 20:20:24 10° N
NOSS 3-1 (C) 3.8 20:10:27 10° SW 20:16:03 66° WNW 20:22:17 10° NNE
Cosmos 2195 Rocket 4.5 20:10:21 10° S 20:16:37 74° E 20:22:51 10° N
Cosmos 2082 4.3 20:12:01 10° NNW 20:17:40 60° WSW 20:23:15 10° S
Atlas Centaur 2 3.0 20:10:49 10° WSW 20:18:43 55° S 20:24:56 12° E
Cosmos 1782 Rocket 3.6 20:17:58 10° S 20:22:18 81° W 20:26:40 10° N
Iridium 30 4.3 20:20:50 10° SSE 20:23:30 48° E 20:26:41 10° NNE
CZ-4C R/B 3.0 20:16:31 10° NNW 20:23:57 87° ENE 20:32:03 10° SSE
Cosmos 2227 Rocket 3.5 20:19:05 10° NW 20:24:22 41° WSW 20:29:38 10° S
CZ-2D R/B 3.3 20:20:49 10° S 20:24:42 83° WSW 20:28:35 10° NNW
SeaSat 1 2.5 20:20:37 10° NNE 20:25:34 84° WNW 20:30:30 10° SSW
Cosmos 1378 Rocket 4.3 20:22:28 10° NNW 20:26:50 57° W 20:31:09 10° S
Cosmos 1980 Rocket 2.2 20:23:12 10° SSW 20:28:50 87° WNW 20:34:28 10° NNE
Cosmos 2151 Rocket 4.1 20:27:39 10° SSE 20:31:42 37° E 20:35:44 10° NNE
Cosmos 44 Rocket 4.3 20:31:04 10° N 20:35:13 29° NE 20:37:44 18° E
Tiangong 1 3.4 20:33:40 10° NW 20:35:39 18° N 20:37:39 10° NE
Cosmos 1655 Rocket 4.0 20:30:32 10° S 20:36:43 70° E 20:43:00 10° N
BREEZE-M DEB (TANK) 2.3 20:34:30 10° WSW 20:37:00 77° NW 20:42:46 10° NE
Cosmos 921 Rocket 3.3 20:35:26 10° SSW 20:39:35 68° WNW 20:43:45 10° N
USA 186 2.1 20:38:00 10° S 20:41:13 66° W 20:44:34 10° NNW
Cosmos 2026 Rocket 4.2 20:35:50 10° S 20:42:06 79° W 20:48:30 10° N
Cosmos 1975 Rocket 3.3 20:38:11 10° N 20:42:40 75° W 20:47:04 10° S
Envisat 2.9 20:39:09 10° SSE 20:44:13 83° ENE 20:49:19 10° N
YAOGAN 6 3.2 20:44:06 27° ESE 20:45:19 36° ENE 20:48:36 10° N
ERBS 2.7 20:42:24 10° SW 20:45:51 66° NW 20:49:18 10° NE
Cosmos 1697 Rocket 4.5 20:40:47 10° SW 20:45:52 35° WNW 20:50:59 10° N
Cosmos 1428 Rocket 4.4 20:39:37 10° S 20:45:53 78° E 20:52:09 10° N
GOES 2 Rocket 4.3 20:41:55 10° WSW 20:46:31 31° SSW 20:48:36 21° SSE
ERS-1 Rocket 4.2 20:45:59 20° E 20:47:39 24° ENE 20:51:39 10° NNE
Meteor 1-11 Rocket 4.0 20:42:26 10° SSE 20:48:06 50° E 20:53:41 10° NNE
Cosmos 1633 3.0 20:44:47 10° SSW 20:48:19 62° W 20:51:55 10° N
Cosmos 1461 4.4 20:45:32 10° NW 20:49:41 37° WSW 20:53:57 10° S
Cosmos 2227 4.3 20:53:13 10° NNW 20:58:47 59° ENE 21:01:40 28° SE
Cosmos 1939 Rocket 2.8 20:59:35 22° S 21:02:07 84° WSW 21:06:07 10° NNW
NOSS 2-3 (D) 4.0 20:58:35 10° S 21:02:52 42° ESE 21:07:37 10° NE
Helios 1B rocket 2.3 21:00:36 10° NNE 21:04:41 69° ESE 21:07:26 20° S
Cosmos 1602 4.0 21:02:38 10° SSW 21:06:28 66° W 21:10:17 10° N
Cosmos 1536 Rocket 3.6 21:02:35 10° N 21:06:51 56° E 21:08:01 41° SE
Cosmos 1452 Rocket 4.3 21:08:35 10° SSW 21:13:44 54° WNW 21:18:55 10° N
SWAS 4.3 21:11:56 10° NNW 21:16:13 89° NE 21:17:18 50° SSE
Cosmos 1536 2.7 21:15:57 54° SE 21:16:39 66° E 21:20:41 10° NNE
SEDSat Delta rocket 4.5 21:12:17 10° W 21:18:38 45° SSW 21:20:45 34° SSE
Cosmos 1420 Rocket 4.2 21:14:47 10° SSW 21:19:55 70° WNW 21:25:06 10° NNE
Uosat 12 SS-18 rocket 4.3 21:15:42 10° SSW 21:20:16 87° WNW 21:25:50 10° NNE
Cosmos 1850 Rocket 4.4 21:15:43 10° N 21:20:48 43° ENE 21:21:38 40° E
Lacrosse 5 rocket 1.6 21:21:13 10° NNW 21:24:42 47° NE 21:24:42 47° NE
Meteor 1-23 Rocket 4.4 21:20:20 10° N 21:25:42 47° ENE 21:26:29 44° ESE
ATLAS 2AS CENTAUR R/B 2.9 21:21:25 10° SSW 21:28:44 60° ESE 21:36:36 10° NE
MetOp-A 4.2 21:27:45 48° ESE 21:28:45 56° ENE 21:33:59 10° N
Meteor 1-19 Rocket 4.4 21:22:57 10° NNW 21:28:50 76° W 21:32:01 28° S
Helios 1A 3.3 21:28:45 41° SSW 21:30:02 62° WSW 21:34:15 10° NNW
Cosmos 44 3.0 21:26:58 10° NNW 21:31:26 88° WSW 21:31:59 69° SSE
Intelsat 5-1 Rocket 4.2 21:15:35 10° WSW 21:32:27 41° S 21:34:41 35° SSE
DELTA 2 R/B (1) 3.6 21:29:12 10° WNW 21:34:50 77° NNE 21:36:11 52° E
Cosmos 2322 Rocket 2.4 21:29:52 10° SSW 21:35:33 71° WNW 21:41:15 10° NNE
GPS 2-05 Rocket1 4.0 21:33:03 10° W 21:35:11 37° W 21:35:11 37° W
BREEZE-M DEB (TANK) 4.2 21:33:53 10° WNW 21:38:21 75° SW 21:45:26 33° SE
NOSS 2-3 (E) 3.8 21:35:26 10° SW 21:40:01 77° WNW 21:45:12 10° NNE
SAR-Lupe-4 4.3 21:41:57 51° NNW 21:41:57 51° NNW 21:44:44 10° NNW
ARGOS 3.1 21:41:52 59° E 21:42:13 60° ENE 21:47:29 10° N
Cosmos 2263 Rocket 2.4 21:38:22 10° N 21:43:54 50° ENE 21:44:12 50° ENE
SL-16 R/B 2.7 21:38:32 10° SSW 21:44:06 60° WNW 21:49:43 10° NNE
Cosmos 2315 Rocket 3.9 21:45:35 10° N 21:51:48 65° E 21:52:23 62° ESE
Terra 3.8 21:57:53 18° NE 21:57:53 18° NE 21:59:46 10° NNE
Cosmos 2266 Rocket 4.5 21:54:33 18° SSW 21:59:01 54° W 22:04:56 10° N
Nadezhda 2 Rocket 4.3 21:58:14 66° S 21:59:10 84° E 22:05:22 10° N
Okean 1-7 Rocket 4.5 21:55:23 10° N 21:58:27 42° NNE 21:58:27 42° NNE
Okean 1 Rocket 3.7 22:01:25 51° W 22:01:25 51° W 22:05:38 10° N
H-2A R/B 2.4 22:03:02 52° NNE 22:03:02 52° NNE 22:07:10 10° N
Atlas Centaur 2 2.6 22:00:46 10° W 22:07:34 58° SSW 22:07:34 58° SSW
Cosmos 2360 Rocket 2.3 22:12:28 65° NNE 22:12:28 65° NNE 22:17:14 10° NNE
Cosmos 1607 4.1 22:11:15 10° NNW 22:17:31 65° NE 22:17:31 65° NE
Aureole 3 Rocket 4.4 22:11:19 10° N 22:20:03 63° E 22:20:06 63° E
Cosmos 1238 Rocket 4.2 22:13:24 10° N 22:19:27 60° NE 22:19:27 60° NE
ERS-1 Rocket 4.3 22:26:00 32° WSW 22:26:13 32° W 22:30:43 10° NW
SPOT 5 3.7 22:27:37 49° NW 22:27:37 49° NW 22:31:24 10° NNW
USA 238 DEB 4.5 22:22:33 10° NNW 22:29:09 40° NE 22:29:14 40° NE
USA 238 4.5 22:22:40 10° NNW 22:29:16 39° NE 22:29:21 39° NE
Lacrosse 5 4.2 22:41:50 16° NNE 22:41:50 16° NNE 22:42:53 10° NNE
ATLAS 3B R/B 3.1 22:50:15 10° NNW 22:55:33 54° N 22:55:33 54° N
Cosmos 2278 Rocket 4.3 23:16:05 10° N 23:18:23 20° NNE 23:18:23 20° NNE
Cosmos 2263 Rocket 4.4 23:23:33 10° WNW 23:25:54 17° W 23:25:54 17° W
Terra 4.4 23:36:46 16° NW 23:36:46 16° NW 23:37:57 10° NNW
Cosmos 1844 Rocket 4.5 23:31:34 10° NNW 23:34:09 28° NNW 23:34:09 28° NNW
Cosmos 2219 Rocket 4.2 23:47:14 22° N 23:47:14 22° N 23:49:15 10° NNE
CENTAUR R/B 4.5 23:44:40 10° N 23:51:10 27° NE 23:52:00 26° NE
Cosmos 2333 Rocket 4.3 23:57:37 21° N 23:57:37 21° N 23:59:26 10° NNE
